WZZ1523 EKCH-EPGD

Flight info

Callsign WZZ1523
Flight time 0h 43m
Altitude 31000
Route SIMEG Z491 TELMO DCT RUMAR L983 DOMAG T240 OGDAV
Aircraft A321/M-SDE3FGHIRWY/LB1

Departure

Time 2026-04-23 07:24
Airport Copenhagen Kastrup Airport (EKCH)

Arrival

Time 2026-04-23 08:07
Airport Gdańsk Lech Wałęsa Airport (EPGD)
Time Latitude Longitude Altitude Speed Heading
2026-04-23 06:31 55.62527 12.65760 32 ft 0 kts 359°
2026-04-23 07:10 55.62512 12.65760 31 ft 4 kts 359°
2026-04-23 07:11 55.62485 12.65761 31 ft 4 kts 359°
2026-04-23 07:11 55.62462 12.65761 31 ft 4 kts 349°
2026-04-23 07:11 55.62445 12.65780 31 ft 4 kts 279°
2026-04-23 07:12 55.62445 12.65832 31 ft 0 kts 269°
2026-04-23 07:13 55.62445 12.65831 31 ft 0 kts 269°
2026-04-23 07:18 55.62445 12.65814 31 ft 3 kts 269°
2026-04-23 07:18 55.62445 12.65758 31 ft 6 kts 270°
2026-04-23 07:18 55.62445 12.65665 31 ft 9 kts 270°
2026-04-23 07:18 55.62444 12.65536 31 ft 12 kts 268°
2026-04-23 07:19 55.62441 12.65375 31 ft 14 kts 268°
2026-04-23 07:19 55.62431 12.65225 31 ft 11 kts 231°
2026-04-23 07:19 55.62351 12.65205 31 ft 14 kts 180°
2026-04-23 07:19 55.62247 12.65195 31 ft 16 kts 188°
2026-04-23 07:20 55.62139 12.65097 31 ft 19 kts 212°
2026-04-23 07:20 55.62021 12.64960 31 ft 22 kts 213°
2026-04-23 07:20 55.61888 12.64807 31 ft 24 kts 213°
2026-04-23 07:20 55.61741 12.64639 31 ft 26 kts 213°
2026-04-23 07:21 55.61592 12.64467 31 ft 24 kts 213°
2026-04-23 07:21 55.61447 12.64300 31 ft 26 kts 213°
2026-04-23 07:21 55.61289 12.64119 31 ft 28 kts 213°
2026-04-23 07:21 55.61124 12.63930 31 ft 27 kts 213°
2026-04-23 07:22 55.60982 12.63767 31 ft 24 kts 213°
2026-04-23 07:22 55.60855 12.63619 31 ft 19 kts 212°
2026-04-23 07:22 55.60769 12.63637 31 ft 14 kts 133°
2026-04-23 07:22 55.60695 12.63785 31 ft 16 kts 128°
2026-04-23 07:23 55.60685 12.63881 31 ft 8 kts 43°
2026-04-23 07:23 55.60778 12.64023 31 ft 43 kts 41°
2026-04-23 07:23 55.61190 12.64667 32 ft 113 kts 38°
2026-04-23 07:23 55.61926 12.65805 65 ft 161 kts 39°
2026-04-23 07:24 55.62732 12.67097 687 ft 153 kts 39°
2026-04-23 07:24 55.63567 12.68384 1092 ft 169 kts 37°
2026-04-23 07:24 55.64510 12.69820 1363 ft 187 kts 38°
2026-04-23 07:24 55.65524 12.71390 1747 ft 200 kts 37°
2026-04-23 07:25 55.66628 12.73050 2078 ft 218 kts 36°
2026-04-23 07:25 55.67819 12.74792 2651 ft 224 kts 36°
2026-04-23 07:25 55.68994 12.76633 3352 ft 228 kts 43°
2026-04-23 07:25 55.69811 12.79092 4025 ft 240 kts 70°
2026-04-23 07:26 55.69842 12.82091 4670 ft 253 kts 100°
2026-04-23 07:26 55.69000 12.84873 5300 ft 264 kts 130°
2026-04-23 07:26 55.67589 12.87007 5940 ft 270 kts 141°
2026-04-23 07:26 55.66052 12.89033 6414 ft 282 kts 141°
2026-04-23 07:27 55.64506 12.91279 6860 ft 293 kts 137°
2026-04-23 07:27 55.62955 12.93718 7373 ft 302 kts 136°
2026-04-23 07:27 55.61343 12.96223 7772 ft 317 kts 137°
2026-04-23 07:27 55.59611 12.98820 8021 ft 336 kts 138°
2026-04-23 07:28 55.57775 13.01535 8322 ft 352 kts 139°
2026-04-23 07:28 55.55865 13.04362 8685 ft 365 kts 139°
2026-04-23 07:28 55.53906 13.07281 9214 ft 370 kts 138°
2026-04-23 07:28 55.51931 13.10234 9842 ft 373 kts 138°
2026-04-23 07:29 55.49947 13.13206 10458 ft 376 kts 138°
2026-04-23 07:29 55.47956 13.16182 10896 ft 385 kts 138°
2026-04-23 07:29 55.45848 13.19319 11131 ft 399 kts 138°
2026-04-23 07:29 55.43699 13.22501 11567 ft 405 kts 138°
2026-04-23 07:30 55.41567 13.25653 12168 ft 406 kts 138°
2026-04-23 07:30 55.39402 13.28858 12737 ft 408 kts 137°
2026-04-23 07:30 55.37224 13.32079 13289 ft 410 kts 137°
2026-04-23 07:30 55.35040 13.35301 13833 ft 412 kts 137°
2026-04-23 07:31 55.32839 13.38541 14359 ft 414 kts 137°
2026-04-23 07:31 55.30630 13.41792 14887 ft 415 kts 137°
2026-04-23 07:31 55.28409 13.45055 15401 ft 417 kts 137°
2026-04-23 07:31 55.26201 13.48381 15909 ft 418 kts 134°
2026-04-23 07:32 55.24301 13.52207 16380 ft 416 kts 121°
2026-04-23 07:32 55.22813 13.56533 16860 ft 415 kts 115°
2026-04-23 07:32 55.21455 13.60992 17319 ft 416 kts 114°
2026-04-23 07:32 55.20119 13.65510 17777 ft 418 kts 114°
2026-04-23 07:33 55.18759 13.70023 18218 ft 420 kts 115°
2026-04-23 07:33 55.17350 13.74517 18621 ft 422 kts 115°
2026-04-23 07:33 55.15903 13.78998 19013 ft 424 kts 116°
2026-04-23 07:33 55.14441 13.83499 19400 ft 426 kts 116°
2026-04-23 07:34 55.12988 13.88022 19779 ft 427 kts 115°
2026-04-23 07:34 55.11544 13.92569 20152 ft 429 kts 115°
2026-04-23 07:34 55.10099 13.97144 20515 ft 431 kts 115°
2026-04-23 07:34 55.08644 14.01729 20871 ft 432 kts 115°
2026-04-23 07:35 55.07181 14.06332 21184 ft 434 kts 113°
2026-04-23 07:35 55.06000 14.11152 21499 ft 431 kts 103°
2026-04-23 07:35 55.05381 14.16217 21810 ft 426 kts 91°
2026-04-23 07:35 55.05284 14.21356 22130 ft 424 kts 86°
2026-04-23 07:36 55.05328 14.26504 22443 ft 425 kts 85°
2026-04-23 07:36 55.05393 14.31600 22747 ft 427 kts 85°
2026-04-23 07:36 55.05419 14.36780 23046 ft 429 kts 86°
2026-04-23 07:36 55.05392 14.41995 23346 ft 431 kts 87°
2026-04-23 07:37 55.05333 14.47230 23619 ft 432 kts 87°
2026-04-23 07:37 55.05274 14.52478 23893 ft 434 kts 87°
2026-04-23 07:37 55.05232 14.57744 24171 ft 435 kts 86°
2026-04-23 07:37 55.05206 14.63029 24428 ft 437 kts 86°
2026-04-23 07:38 55.05179 14.68327 24712 ft 438 kts 86°
2026-04-23 07:38 55.05142 14.73654 25014 ft 440 kts 86°
2026-04-23 07:38 55.05097 14.78993 25304 ft 441 kts 86°
2026-04-23 07:38 55.05047 14.84353 25572 ft 443 kts 86°
2026-04-23 07:39 55.04997 14.89733 25833 ft 444 kts 86°
2026-04-23 07:39 55.04947 14.95126 26088 ft 446 kts 86°
2026-04-23 07:39 55.04895 15.00526 26412 ft 445 kts 86°
2026-04-23 07:39 55.04840 15.05907 26792 ft 443 kts 86°
2026-04-23 07:40 55.04782 15.11273 27104 ft 443 kts 86°
2026-04-23 07:40 55.04720 15.16631 27455 ft 441 kts 86°
2026-04-23 07:40 55.04655 15.21962 27785 ft 440 kts 86°
2026-04-23 07:40 55.04589 15.27290 28103 ft 439 kts 86°
2026-04-23 07:41 55.04526 15.32596 28429 ft 437 kts 86°
2026-04-23 07:41 55.04459 15.37892 28754 ft 436 kts 86°
2026-04-23 07:41 55.04389 15.43174 29077 ft 435 kts 86°
2026-04-23 07:41 55.04315 15.48440 29369 ft 434 kts 86°
2026-04-23 07:42 55.04242 15.53688 29651 ft 433 kts 86°
2026-04-23 07:42 55.04168 15.58942 29946 ft 432 kts 86°
2026-04-23 07:42 55.04088 15.64178 30199 ft 432 kts 86°
2026-04-23 07:42 55.04003 15.69400 30449 ft 430 kts 87°
2026-04-23 07:43 55.03916 15.74610 30704 ft 429 kts 86°
2026-04-23 07:43 55.03833 15.79803 30955 ft 427 kts 86°
2026-04-23 07:43 55.03752 15.84973 31195 ft 427 kts 86°
2026-04-23 07:44 55.03573 15.95314 31204 ft 427 kts 86°
2026-04-23 07:44 55.03380 16.05675 31204 ft 429 kts 86°
2026-04-23 07:45 55.03084 16.16068 31199 ft 430 kts 88°
2026-04-23 07:45 55.02751 16.26406 31197 ft 430 kts 88°
2026-04-23 07:46 55.02419 16.36804 31172 ft 430 kts 87°
2026-04-23 07:46 55.02079 16.47202 31159 ft 429 kts 88°
2026-04-23 07:47 55.01730 16.57458 30766 ft 417 kts 88°
2026-04-23 07:47 55.01558 16.62496 30022 ft 418 kts 88°
2026-04-23 07:47 55.01388 16.67585 29109 ft 423 kts 88°
2026-04-23 07:47 55.01211 16.72739 28166 ft 429 kts 88°
2026-04-23 07:48 55.01026 16.77951 27192 ft 434 kts 88°
2026-04-23 07:48 55.00835 16.83221 26295 ft 437 kts 88°
2026-04-23 07:48 55.00636 16.88496 25633 ft 434 kts 88°
2026-04-23 07:48 55.00440 16.93726 24967 ft 431 kts 88°
2026-04-23 07:49 55.00246 16.98928 24301 ft 428 kts 88°
2026-04-23 07:49 55.00055 17.04082 23643 ft 426 kts 88°
2026-04-23 07:49 54.99862 17.09213 23013 ft 423 kts 88°
2026-04-23 07:49 54.99666 17.14299 22378 ft 420 kts 88°
2026-04-23 07:50 54.99466 17.19349 21776 ft 416 kts 88°
2026-04-23 07:50 54.99332 17.22673 21367 ft 414 kts 88°
2026-04-23 07:50 54.99134 17.27654 20766 ft 411 kts 88°
2026-04-23 07:50 54.98937 17.32594 20160 ft 407 kts 88°
2026-04-23 07:51 54.98739 17.37491 19549 ft 404 kts 88°
2026-04-23 07:51 54.98541 17.42359 18928 ft 401 kts 88°
2026-04-23 07:51 54.98342 17.47186 18328 ft 398 kts 88°
2026-04-23 07:51 54.98143 17.51970 17717 ft 395 kts 88°
2026-04-23 07:52 54.97942 17.56724 17105 ft 392 kts 89°
2026-04-23 07:52 54.97744 17.61440 16484 ft 389 kts 89°
2026-04-23 07:52 54.97338 17.66109 15840 ft 394 kts 99°
2026-04-23 07:52 54.96269 17.70543 15187 ft 402 kts 116°
2026-04-23 07:53 54.94519 17.74360 14568 ft 406 kts 129°
2026-04-23 07:53 54.92535 17.77830 13944 ft 404 kts 132°
2026-04-23 07:53 54.90513 17.81215 13323 ft 402 kts 132°
2026-04-23 07:53 54.88531 17.84609 12721 ft 398 kts 131°
2026-04-23 07:54 54.86611 17.88052 12111 ft 395 kts 130°
2026-04-23 07:54 54.84742 17.91498 11659 ft 388 kts 129°
2026-04-23 07:54 54.82925 17.94847 11458 ft 374 kts 130°
2026-04-23 07:54 54.81163 17.98046 11295 ft 360 kts 130°
2026-04-23 07:55 54.79354 18.00953 11131 ft 350 kts 138°
2026-04-23 07:55 54.77491 18.03465 10988 ft 338 kts 140°
2026-04-23 07:55 54.75604 18.05860 10815 ft 327 kts 141°
2026-04-23 07:55 54.73771 18.08162 10448 ft 325 kts 141°
2026-04-23 07:56 54.71960 18.10484 10049 ft 323 kts 141°
2026-04-23 07:56 54.70195 18.12793 9659 ft 321 kts 141°
2026-04-23 07:56 54.68418 18.15126 9267 ft 320 kts 141°
2026-04-23 07:56 54.66748 18.17629 8871 ft 317 kts 132°
2026-04-23 07:57 54.65255 18.20412 8490 ft 314 kts 129°
2026-04-23 07:57 54.63829 18.23255 8108 ft 312 kts 128°
2026-04-23 07:57 54.62408 18.26079 7730 ft 311 kts 129°
2026-04-23 07:57 54.60969 18.28845 7357 ft 309 kts 130°
2026-04-23 07:58 54.59515 18.31570 6981 ft 308 kts 130°
2026-04-23 07:58 54.58074 18.34287 6618 ft 306 kts 129°
2026-04-23 07:58 54.56658 18.36996 6355 ft 303 kts 129°
2026-04-23 07:58 54.55247 18.39693 6106 ft 302 kts 129°
2026-04-23 07:59 54.53839 18.42371 5856 ft 301 kts 130°
2026-04-23 07:59 54.52435 18.45034 5605 ft 299 kts 130°
2026-04-23 07:59 54.51035 18.47675 5355 ft 298 kts 130°
2026-04-23 07:59 54.49643 18.50298 5104 ft 296 kts 130°
2026-04-23 08:00 54.48262 18.52911 4854 ft 294 kts 129°
2026-04-23 08:00 54.46889 18.55520 4602 ft 293 kts 129°
2026-04-23 08:00 54.45528 18.58108 4351 ft 290 kts 129°
2026-04-23 08:00 54.44196 18.60618 4102 ft 285 kts 129°
2026-04-23 08:01 54.42870 18.63111 3850 ft 280 kts 129°
2026-04-23 08:01 54.41559 18.65592 3597 ft 274 kts 129°
2026-04-23 08:01 54.40189 18.67763 3331 ft 272 kts 146°
2026-04-23 08:01 54.38525 18.69251 3093 ft 268 kts 155°
2026-04-23 08:02 54.36843 18.70517 2941 ft 259 kts 156°
2026-04-23 08:02 54.35174 18.71527 2794 ft 250 kts 172°
2026-04-23 08:02 54.33489 18.71624 2695 ft 234 kts 185°
2026-04-23 08:02 54.31953 18.71276 2625 ft 213 kts 202°
2026-04-23 08:03 54.30827 18.69962 2480 ft 183 kts 238°
2026-04-23 08:03 54.30413 18.68076 2437 ft 162 kts 274°
2026-04-23 08:03 54.30731 18.66374 2371 ft 147 kts 310°
2026-04-23 08:03 54.31469 18.65212 2316 ft 144 kts 325°
2026-04-23 08:04 54.32288 18.64176 2245 ft 148 kts 326°
2026-04-23 08:04 54.33114 18.63133 2131 ft 148 kts 323°
2026-04-23 08:04 54.33761 18.61756 2003 ft 148 kts 308°
2026-04-23 08:04 54.34309 18.60271 1830 ft 147 kts 306°
2026-04-23 08:05 54.34776 18.58709 1665 ft 147 kts 299°
2026-04-23 08:05 54.35171 18.57101 1485 ft 146 kts 296°
2026-04-23 08:05 54.35563 18.55506 1300 ft 145 kts 297°
2026-04-23 08:05 54.35957 18.53916 1113 ft 144 kts 297°
2026-04-23 08:06 54.36345 18.52332 925 ft 144 kts 297°
2026-04-23 08:06 54.36732 18.50754 745 ft 144 kts 297°
2026-04-23 08:06 54.37123 18.49181 553 ft 143 kts 297°
2026-04-23 08:06 54.37493 18.47705 503 ft 107 kts 293°
2026-04-23 08:07 54.37680 18.46949 503 ft 47 kts 293°
2026-04-23 08:07 54.37794 18.46483 503 ft 40 kts 294°
2026-04-23 08:07 54.37902 18.46055 503 ft 37 kts 298°
2026-04-23 08:07 54.38039 18.45776 503 ft 28 kts 324°
2026-04-23 08:08 54.38130 18.45685 503 ft 8 kts
2026-04-23 08:08 54.38149 18.45772 503 ft 10 kts 103°
2026-04-23 08:08 54.38118 18.45902 503 ft 13 kts 113°
2026-04-23 08:08 54.38110 18.46034 503 ft 11 kts 46°
2026-04-23 08:09 54.38178 18.46098 503 ft 9 kts 47°
2026-04-23 08:09 54.38169 18.46218 503 ft 11 kts 112°
2026-04-23 08:09 54.38145 18.46313 503 ft 8 kts 111°
2026-04-23 08:09 54.38162 18.46356 503 ft 3 kts 24°
2026-04-23 08:10 54.38180 18.46368 503 ft 3 kts 22°
2026-04-23 08:10 54.38185 18.46372 503 ft 0 kts 22°
2026-04-23 08:11 54.38186 18.46372 503 ft 0 kts 22°